Tracking 34138 objects as of 15-May-2026
HD Live streaming from Space Station
objects crossing your sky now

STARLINK-36982

Track STARLINK-36982 now!
10-day predictions
STARLINK-36982 is classified as:


NORAD ID: 68278
Int'l Code: 2026-055S
Perigee: 445.9 km
Apogee: 447.8 km
Inclination: 53.2 °
Period: 93.4 minutes
Semi major axis: 6817 km
RCS: Unknown
Launch date: March 19, 2026
Source: United States (US)
Launch site: AIR FORCE EASTERN TEST RANGE (AFETR)
Your satellite tracking list
Your tracking list is empty




NASA's NSSDC Master Catalog

Two Line Element Set (TLE):
1 68278U 26055S   26134.66133266  .00022983  00000-0  53569-3 0  9993
2 68278  53.1603  12.6943 0001391  63.6907 296.4242 15.42177260 10039
Source of the keplerian elements: AFSPC